St. George, AK

7:26 PM AKDT on October 20, 2017 (GMT -0800)
Saint George

Weather History for PAPB - January, 2013

Change the Weather History Date:

Tuesday, January 22, 2013

  Actual Average Record
Temperature  
Mean Temperature 32 °F -  
Max Temperature 34 °F 30 °F 39 °F (1997)
Min Temperature 30 °F 24 °F 8 °F (2012)
Degree Days  
Heating Degree Days 33    
Moisture  
Dew Point 28 °F    
Average Humidity 82    
Maximum Humidity 100    
Minimum Humidity 70    
Precipitation  
Precipitation 0.00 in - - ()
Sea Level Pressure  
Sea Level Pressure 29.43 in    
Wind  
Wind Speed 14 mph (NW)    
Max Wind Speed 20 mph    
Max Gust Speed 26 mph    
Visibility 9 miles    
Events Rain    
Averages and records for this station are not official NWS values.
T = Trace of Precipitation, MM = Missing Value Source: NWS Daily Summary

Daily Weather History Graph

Daily Weather History Graph

Search for Another Location

Airport or City:

Trip Planner

Search our weather history database for the weather conditions in past years. The results will help you decide how hot, cold, wet, or windy it might be!

Date:

Astronomy

Jan. 22, 2013 Rise Set
Actual Time 10:32 AM AKST 6:28 PM AKST
Civil Twilight 9:48 AM AKST 7:12 PM AKST
Nautical Twilight 9:01 AM AKST 7:59 PM AKST
Astronomical Twilight 8:17 AM AKST 8:44 PM AKST
Moon 2:51 PM AKST (1/22) 7:15 AM AKST (1/22)
Length of Visible Light 9h 23m
Length of Day
7h 56m
Waxing Gibbous, 84% of the Moon is Illuminated
Jan 22
Waxing Gibbous
Jan 26
Full
Feb 3
Last Quarter
Feb 9
New
Feb 17
First Quarter

Hourly Weather History & Observations

Time (AKST) Temp. Windchill Dew Point Humidity Pressure Visibility Wind Dir Wind Speed Gust Speed Precip Events Conditions
12:04 AM 33.8 °F 23.5 °F 30.2 °F 87% 29.44 in 10.0 mi WNW 16.1 mph - N/A   Overcast
12:15 AM 33.8 °F 23.9 °F 28.4 °F 81% 29.44 in 10.0 mi WNW 15.0 mph - N/A   Overcast
12:53 AM 34.0 °F 24.2 °F 30.9 °F 89% 29.41 in 10.0 mi West 15.0 mph - N/A   Overcast
1:53 AM 34.0 °F 24.2 °F 30.0 °F 85% 29.41 in 10.0 mi WNW 15.0 mph - N/A   Overcast
2:53 AM 34.0 °F 24.6 °F 28.9 °F 82% 29.42 in 10.0 mi WNW 13.8 mph - N/A   Overcast
3:33 AM 33.8 °F 23.5 °F 28.4 °F 81% 29.45 in 10.0 mi WNW 16.1 mph 20.7 mph N/A   Overcast
3:53 AM 34.0 °F 23.8 °F 30.0 °F 85% 29.42 in 10.0 mi WNW 16.1 mph - N/A   Overcast
4:53 AM 34.0 °F 24.2 °F 28.9 °F 82% 29.42 in 10.0 mi WNW 15.0 mph - N/A   Overcast
5:37 AM 33.8 °F 23.5 °F 28.4 °F 81% 29.45 in 9.0 mi WNW 16.1 mph - 0.00 in   Overcast
5:49 AM 33.8 °F 24.3 °F 28.4 °F 81% 29.46 in 10.0 mi WNW 13.8 mph - 0.00 in   Overcast
5:53 AM 34.0 °F 24.2 °F 30.0 °F 85% 29.42 in 10.0 mi WNW 15.0 mph - 0.00 in   Overcast
6:53 AM 33.1 °F 23.9 °F 30.0 °F 89% 29.43 in 10.0 mi WNW 12.7 mph - 0.00 in   Overcast
7:29 AM 33.8 °F 23.9 °F 28.4 °F 81% 29.46 in 10.0 mi WNW 15.0 mph - 0.00 in   Overcast
7:53 AM 33.1 °F 22.2 °F 28.0 °F 82% 29.43 in 10.0 mi WNW 17.3 mph 21.9 mph 0.00 in   Overcast
8:53 AM 33.1 °F 22.2 °F 28.9 °F 85% 29.43 in 10.0 mi West 17.3 mph - N/A   Overcast
9:53 AM 32.0 °F 22.5 °F 28.9 °F 88% 29.43 in 10.0 mi NW 12.7 mph - N/A   Overcast
10:53 AM 33.1 °F 24.9 °F 28.0 °F 82% 29.44 in 10.0 mi WNW 10.4 mph - N/A   Overcast
11:08 AM 33.8 °F 25.8 °F 28.4 °F 81% 29.47 in 10.0 mi WNW 10.4 mph - N/A   Overcast
11:50 AM 33.8 °F 24.8 °F 26.6 °F 75% 29.47 in 10.0 mi NW 12.7 mph - N/A   Overcast
11:53 AM 33.1 °F 23.9 °F 27.0 °F 78% 29.44 in 10.0 mi NW 12.7 mph - N/A   Overcast
12:00 PM 33.8 °F 25.3 °F 26.6 °F 75% 29.47 in 10.0 mi WNW 11.5 mph - N/A   Overcast
12:10 PM 33.8 °F 24.8 °F 26.6 °F 75% 29.48 in 10.0 mi WNW 12.7 mph - N/A   Overcast
12:53 PM 33.1 °F 23.9 °F 27.0 °F 78% 29.44 in 10.0 mi WNW 12.7 mph - N/A   Overcast
1:44 PM 33.8 °F 24.8 °F 26.6 °F 75% 29.46 in 10.0 mi NW 12.7 mph - N/A   Overcast
1:53 PM 33.1 °F 24.9 °F 26.1 °F 75% 29.43 in 10.0 mi NW 10.4 mph - N/A   Overcast
2:53 PM 33.1 °F 25.5 °F 26.1 °F 75% 29.42 in 10.0 mi NW 9.2 mph - N/A   Overcast
3:53 PM 33.1 °F 24.4 °F 26.1 °F 75% 29.42 in 10.0 mi NW 11.5 mph - N/A   Overcast
4:53 PM 33.1 °F 22.6 °F 24.1 °F 70% 29.41 in 10.0 mi NNW 16.1 mph - N/A   Overcast
5:53 PM 33.1 °F 23.0 °F 25.0 °F 72% 29.40 in 10.0 mi NNW 15.0 mph - N/A   Overcast
6:15 PM 32.0 °F 21.6 °F 24.8 °F 75% 29.43 in 10.0 mi NNW 15.0 mph - N/A   Overcast
6:28 PM 33.8 °F 23.5 °F 24.8 °F 70% 29.43 in 10.0 mi NNW 16.1 mph - N/A   Overcast
6:53 PM 33.1 °F 23.4 °F 25.0 °F 72% 29.40 in 10.0 mi NNW 13.8 mph - N/A   Overcast
7:53 PM 32.0 °F 20.8 °F 27.0 °F 82% 29.39 in 10.0 mi NNW 17.3 mph - N/A   Overcast
8:53 PM 32.0 °F 20.8 °F 28.9 °F 88% 29.38 in 8.0 mi NNW 17.3 mph - N/A   Overcast
9:08 PM 32.0 °F 20.1 °F 30.2 °F 93% 29.41 in 6.0 mi NNW 19.6 mph 24.2 mph 0.00 in Rain Light Freezing Rain
9:53 PM 32.0 °F 22.5 °F 30.0 °F 92% 29.37 in 4.0 mi NNW 12.7 mph 26.5 mph 0.00 in Rain Light Freezing Rain
10:53 PM 30.9 °F 22.8 °F 30.0 °F 96% 29.37 in 6.0 mi North 9.2 mph 21.9 mph 0.00 in Rain Light Freezing Rain
11:16 PM 30.2 °F 21.9 °F 30.2 °F 100% 29.40 in 5.0 mi North 9.2 mph 20.7 mph 0.00 in   Overcast
11:53 PM 30.9 °F 22.2 °F 30.0 °F 96% 29.36 in 5.0 mi North 10.4 mph - 0.00 in   Overcast